Showing default

AAC-AIS-SAT-1, 55107

Orbit data source: Space-Track

AAC-AIS-SAT-1, 55107 is a payload satellite owned by AAC ClydeSpace (UK) in SSO that was launched on Tue, 03 Jan 2023 UTC via an FALCON 9 launch vehicle from the Air Force Eastern Test Range (AFETR). Payload-class satellites include a variety of spacecraft equipped with specific instruments for various scientific and technological missions. These include communications satellites like Starlink; space stations such as the ISS; scientific satellites like the Hubble; Earth observation satellites from companies like Planet Labs, Umbra, and HawkEye 360; GPS; miniature CubeSats for education and research; and military/defense satellites.

Loading next visibility...
Identifier
55107, 2023-001DC
Orbit
SSO
Country
Flag of UKUK
Related business
Manufacturer
AAC ClydeSpace
Mission
Operational Commercial Communications
Bus & Motor
CUBESAT 3U, Unknown motor
Mass
4 kg wet, 4 kg dry
Launch date (UTC)
2023-01-03 (4 years ago)
Launch vehicle
FALCON 9
Launch site
Air Force Eastern Test Range (AFETR)
Object type
Payload
Rocket body
Debris
Shape & HBR
Box, 1.0 m
Radar Cross Section
0.035 m², Medium (>0.1 m² and < 1m²)

Expand to show TLE details & history
Last TLE update: 19 hours ago

TLE from 19 hours ago
0 AAC-AIS-SAT-1
1 55107U 23001DC  26206.59350890  .00004136  00000-0  40899-3 0  9996
2 55107  97.9186 283.5686 0010390 146.7086 213.4788 14.92416374184011
Epoch: 2026-07-25T14:14Z
TLE epoch observation values (Epoch: 2026-07-25T14:14:39.168Z)
Latitude
-0.00006°
Longitude
126.60185°
Altitude
599.484 km
Speed
7.557 km/s
True Right ascension
18h 54m 16s
True Declination
0° 00' 00"
Sunlit
Object was in full shadow at epoch
Visualization orbit readout
Latitude
Unknown
Longitude
Unknown
Altitude
Unknown
Speed
Unknown
Apparent Right ascension
Unknown
Apparent Declination
Unknown
Sunlit
N/A
Visualization observer readout
Local Sidereal Time
22:11:39
Azimuth
Unknown
Elevation
Unknown
Doppler factor
Unknown
Orbital elements
Apogee altitude
594.666 km
Perigee altitude
580.192 km
Semi-major axis
6,965.566 km
Eccentricity
0.00104
Inclination
97.9186°
RAAN
283.5686°
Arg. of periapsis
146.7086°
True anomaly
213.41319°
Mean anomaly
213.4788°
Eccentric anomaly
213.44599°
Mean motion
3.73343 °/min
Orbital period
96.43 mins
BSTAR
0.00040899
Loading maneuver chart data...
Computing Atmospheric mass density...

Documentation

Showing up to 5 results
|